Wind_Speed
1 0 1 1 0 1 1 2 3 3 2 2 2 3 3 2 2 1 2 5 6 6 7 7 8 8 9 9 9 8 8 7 6 6 5 6 6 5 5 5 6 6 6
1 1 1 1 1 2 2 3 3 4 3 3 3 2 2 1 1 1 2 5 6 7 7 7 8 8 9 9 9 8 8 8 7 6 6 6 6 6 5 5 7 7 7
2 2 2 2 2 3 3 4 4 4 4 3 2 2 1 0 1 1 2 4 5 7 7 7 8 8 8 10 9 9 9 8 7 6 6 6 6 6 7 7 7 7 8
2 2 3 2 3 3 4 4 4 5 4 3 3 3 3 2 1 1 2 3 5 6 7 8 8 8 8 9 10 10 10 9 7 7 7 7 7 7 8 8 8 8 8
3 3 3 4 4 4 4 4 4 5 5 4 4 4 4 3 3 2 3 3 5 6 7 8 9 9 9 9 9 10 10 9 8 8 8 7 7 7 8 9 8 8 9
4 4 5 5 5 5 5 5 5 5 6 6 5 5 5 5 4 4 5 5 6 7 8 9 9 10 10 10 10 10 10 10 8 8 8 8 7 6 7 8 9 8 9
5 5 6 6 6 6 6 6 6 6 6 6 5 6 6 6 5 6 6 6 6 8 9 10 11 11 11 12 11 11 11 10 9 9 9 8 7 6 7 8 9 8 9
6 6 7 7 7 7 7 7 7 6 6 6 5 6 6 6 6 6 7 8 9 9 10 10 10 10 10 11 11 11 12 11 10 9 9 8 8 8 7 7 8 9 10
7 7 7 7 7 7 7 7 7 7 6 6 6 6 6 6 6 6 7 7 6 7 9 9 9 9 9 10 10 10 11 11 10 10 9 8 8 8 7 8 8 9 10
7 7 7 7 7 7 8 8 8 7 7 7 7 6 6 7 6 6 5 5 3 4 6 7 8 7 9 9 8 8 9 9 9 8 8 7 8 8 8 8 8 8 9
7 7 6 7 7 7 8 8 8 8 8 8 8 8 8 8 7 6 5 4 3 3 5 6 7 7 8 8 8 8 9 9 9 9 8 8 8 8 8 9 9 9 10
8 8 7 7 7 7 8 8 9 8 8 8 8 8 8 8 8 7 6 5 4 5 5 6 6 7 7 7 8 9 9 9 9 10 9 9 9 9 9 10 10 11 12
9 8 8 8 8 8 9 9 9 9 9 9 9 9 9 9 8 7 7 6 6 7 6 6 6 6 7 7 8 8 9 9 9 10 9 9 10 10 10 11 11 11 11
9 9 9 9 9 9 10 10 10 10 10 10 10 10 10 9 9 8 8 8 8 7 7 7 7 7 7 8 9 9 10 10 10 10 10 11 11 10 11 11 12 12 12
9 9 9 9 10 10 11 11 11 11 11 11 11 10 10 9 10 9 9 9 9 8 9 9 9 8 8 9 9 10 10 10 11 11 11 11 12 12 11 11 12 12 11
10 10 9 9 10 11 11 11 11 11 11 11 10 10 10 10 10 9 9 9 9 9 9 9 9 10 10 10 11 11 11 11 11 12 12 12 12 12 12 12 13 12 11
11 11 11 10 11 11 11 11 11 11 11 11 11 10 10 10 10 10 9 9 9 9 9 9 9 9 10 10 10 11 11 11 12 12 12 12 12 12 12 12 12 11 11
11 11 12 12 11 11 11 10 10 10 11 11 11 10 9 9 9 9 10 10 10 10 10 10 11 11 11 11 11 11 11 12 12 13 13 13 13 13 13 12 12 11 11
11 11 11 11 12 11 11 10 9 10 11 11 11 11 10 10 9 9 10 11 11 10 11 11 11 12 12 12 12 12 12 12 13 13 13 14 14 14 14 14 13 13 13
11 12 12 11 11 12 11 10 10 10 10 11 11 11 11 10 10 10 10 11 11 11 12 12 12 12 12 12 12 12 12 12 12 12 13 13 14 14 15 15 14 14 14
12 12 12 12 12 11 11 10 11 11 11 11 11 11 11 11 11 11 11 11 12 12 12 12 13 13 13 12 13 13 13 13 12 13 12 13 13 14 14 14 14 14 14
12 12 12 12 12 11 11 11 11 11 11 11 11 12 12 12 12 11 12 12 12 13 13 13 13 13 13 14 14 14 13 13 13 13 13 13 14 14 15 15 15 15 16
13 12 12 12 12 12 11 12 11 11 11 11 11 12 12 12 13 12 12 13 13 13 13 13 12 13 13 14 15 15 14 14 14 15 15 15 15 15 15 15 16 17 17
13 13 13 13 13 13 12 12 12 12 12 12 11 12 12 13 13 13 13 13 13 13 13 14 13 14 14 15 15 15 15 15 15 15 16 16 16 16 16 17 18 18 18
13 13 13 13 13 13 13 13 13 12 12 12 12 12 12 13 13 14 14 14 13 13 14 14 14 15 15 16 16 16 16 16 16 16 17 17 17 17 17 18 19 19 19
14 13 13 14 13 13 13 13 13 13 13 13 13 13 13 14 14 15 14 14 14 14 15 15 15 16 16 16 17 17 18 18 18 18 18 19 19 19 19 19 20 20 20
Wind_Direction
193 230 26 48 27 356 358 353 352 342 318 335 340 349 351 345 13 18 176 188 192 193 191 191 192 191 194 193 195 199 203 204 214 221 225 228 231 229 230 238 237 236 233
239 252 275 281 264 297 319 331 331 327 307 313 321 332 355 20 35 68 164 182 189 192 192 194 197 194 197 196 198 202 206 210 215 222 226 229 234 233 235 237 238 238 239
247 257 264 265 269 290 304 315 321 321 314 311 314 336 356 18 112 144 184 192 189 189 192 198 201 198 198 199 201 204 208 213 219 224 226 229 237 237 238 237 234 237 242
258 265 267 272 276 290 303 307 310 316 320 317 305 313 325 320 309 215 215 209 203 199 196 200 205 207 206 206 209 210 216 219 223 226 227 232 238 245 246 241 237 237 239
259 268 275 275 277 285 292 295 302 305 313 306 302 300 302 298 283 263 256 244 225 211 208 210 215 216 213 214 215 217 219 219 224 229 234 237 245 252 248 239 239 238 236
268 274 277 279 281 282 283 285 290 293 296 293 291 296 298 295 283 270 265 257 237 228 225 224 226 225 224 222 222 225 228 225 228 233 240 244 253 254 248 237 238 238 237
269 276 279 278 278 278 276 276 279 281 283 285 282 290 298 297 280 266 260 258 243 234 228 229 233 230 230 225 225 227 229 229 234 237 241 243 251 252 246 237 237 237 236
277 277 278 277 276 275 273 273 275 275 279 283 285 291 297 293 288 285 280 267 263 245 230 229 233 234 231 226 227 229 232 233 240 241 241 243 247 247 246 241 242 242 238
280 280 279 277 274 273 272 273 274 273 275 279 288 293 295 298 297 295 295 289 272 251 235 230 232 233 233 229 228 230 233 236 243 242 245 250 250 251 250 247 249 250 244
279 281 280 276 273 272 272 272 270 269 271 275 282 287 286 292 299 299 306 304 288 245 228 232 238 239 243 239 237 235 240 243 245 242 244 247 251 251 251 254 257 258 250
280 280 279 278 276 276 274 274 272 270 270 272 277 283 284 287 290 291 299 297 287 251 234 237 239 245 246 244 240 237 237 243 248 244 244 245 250 251 257 258 259 261 256
279 275 274 277 275 274 275 276 274 272 270 271 275 279 282 285 285 282 279 272 262 254 246 242 246 246 243 244 239 235 237 244 246 242 241 245 248 248 254 257 258 259 257
275 272 272 273 274 273 273 272 272 270 271 270 272 275 279 280 279 275 271 264 258 252 246 243 241 236 238 239 238 237 237 243 246 243 243 245 248 251 254 258 259 259 257
269 269 270 271 273 273 272 271 269 270 272 271 270 271 274 276 272 269 270 265 260 254 249 250 247 242 241 241 242 244 244 242 242 245 247 250 254 256 259 262 264 262 258
271 268 271 271 273 274 274 272 268 266 271 275 272 270 272 275 272 267 267 267 262 257 252 251 246 249 248 249 250 252 249 244 243 245 250 254 257 259 261 262 263 266 263
271 271 270 272 273 275 274 273 271 268 271 274 274 271 270 271 270 269 269 264 262 258 253 250 249 251 254 256 254 253 253 254 255 252 252 253 257 258 261 264 265 267 263
271 273 274 274 273 274 276 275 274 271 270 270 271 268 266 269 270 266 264 265 264 262 258 252 252 254 256 256 255 255 257 257 257 257 256 256 258 259 261 265 267 270 265
271 273 276 275 275 278 279 277 274 272 270 268 266 266 267 267 269 267 265 269 270 265 261 258 256 256 258 259 258 259 260 257 255 257 258 258 258 259 259 261 265 269 269
270 273 276 277 279 283 282 279 275 273 271 268 265 265 266 268 269 268 268 270 272 267 262 260 260 259 261 262 260 260 261 259 258 257 257 257 257 257 258 260 263 268 270
274 276 277 278 279 284 285 283 280 276 273 271 267 267 268 269 267 268 268 270 269 266 264 266 266 263 262 261 259 260 262 260 259 259 257 258 259 260 261 263 263 264 268
276 276 276 277 276 280 283 279 280 276 275 275 272 269 269 269 268 269 270 272 273 270 267 268 267 262 259 259 260 261 261 260 261 258 258 259 261 261 262 262 263 263 265
278 277 274 271 273 277 279 278 277 274 274 276 275 269 267 267 268 267 268 273 275 274 273 273 268 263 260 259 260 262 261 260 262 263 262 262 261 261 263 263 263 265 267
273 276 274 270 273 275 275 275 276 276 274 277 276 270 267 265 265 268 267 271 273 275 273 271 268 269 265 261 262 262 260 258 258 262 262 263 263 262 262 264 266 267 269
272 273 274 275 272 272 272 273 277 278 276 277 278 274 270 269 270 270 270 271 272 272 270 270 269 269 268 266 265 263 262 261 262 263 263 263 264 264 265 266 267 267 269
270 271 273 273 273 270 272 274 275 274 275 276 277 275 272 272 272 272 275 272 272 270 270 271 269 268 268 267 265 264 262 263 264 265 265 266 266 266 267 266 266 266 267
266 268 270 268 272 273 273 275 276 274 273 274 276 275 273 272 271 272 272 272 271 271 272 271 271 269 268 268 267 265 263 264 265 266 266 265 267 268 268 268 267 267 267
Height
5882 5882 5881 5881 5880 5880 5879 5878 5877 5876 5875 5875 5874 5872 5871 5869 5868 5866 5863 5864 5867 5868 5869 5870 5871 5872 5873 5874 5875 5876 5876 5877 5877 5877 5878 5878 5878 5878 5878 5878 5878 5879 5879
5882 5881 5881 5880 5880 5880 5879 5878 5877 5876 5875 5874 5873 5872 5871 5869 5867 5866 5864 5865 5866 5868 5868 5870 5870 5871 5872 5873 5874 5875 5875 5876 5877 5877 5877 5877 5877 5877 5877 5877 5877 5878 5878
5881 5881 5880 5880 5880 5879 5878 5878 5877 5876 5874 5873 5873 5872 5871 5869 5868 5867 5866 5866 5867 5867 5868 5869 5870 5871 5872 5872 5873 5874 5874 5875 5876 5876 5876 5876 5875 5875 5875 5875 5875 5876 5876
5881 5880 5880 5879 5879 5879 5878 5877 5876 5875 5874 5873 5872 5871 5870 5869 5868 5868 5867 5867 5867 5867 5868 5869 5869 5870 5871 5872 5872 5873 5873 5874 5874 5874 5874 5874 5874 5873 5872 5873 5874 5874 5875
5880 5880 5879 5879 5878 5878 5877 5876 5875 5874 5874 5873 5872 5871 5870 5869 5869 5868 5868 5867 5867 5867 5867 5868 5869 5869 5870 5871 5872 5872 5872 5873 5873 5873 5873 5873 5872 5871 5870 5870 5871 5872 5873
5879 5879 5878 5878 5878 5877 5876 5875 5875 5874 5873 5872 5871 5871 5870 5869 5868 5868 5867 5866 5865 5865 5866 5867 5867 5869 5869 5870 5870 5871 5871 5872 5872 5872 5872 5872 5870 5869 5867 5868 5870 5871 5872
5878 5877 5877 5877 5876 5876 5875 5874 5874 5873 5872 5871 5870 5870 5869 5868 5867 5867 5866 5865 5863 5863 5864 5865 5866 5867 5868 5868 5869 5869 5870 5870 5871 5871 5871 5870 5870 5869 5867 5867 5868 5870 5871
5877 5876 5876 5875 5875 5874 5874 5873 5873 5872 5871 5871 5870 5869 5868 5867 5866 5865 5864 5862 5861 5860 5861 5863 5865 5865 5866 5867 5867 5867 5868 5869 5869 5870 5869 5869 5869 5869 5868 5868 5869 5869 5870
5875 5875 5874 5874 5873 5873 5872 5872 5871 5871 5870 5869 5869 5868 5867 5867 5866 5864 5863 5859 5856 5855 5858 5861 5863 5864 5865 5866 5866 5866 5867 5867 5868 5868 5868 5868 5868 5868 5868 5868 5868 5868 5868
5874 5873 5873 5872 5872 5871 5871 5870 5870 5869 5869 5868 5868 5867 5866 5866 5865 5863 5861 5858 5855 5855 5858 5861 5862 5863 5863 5864 5865 5865 5866 5866 5866 5867 5867 5867 5867 5867 5867 5867 5867 5867 5867
5872 5871 5871 5871 5870 5870 5869 5869 5868 5868 5867 5867 5867 5866 5865 5864 5863 5863 5861 5859 5858 5858 5859 5860 5861 5862 5862 5862 5863 5864 5864 5865 5865 5865 5865 5865 5865 5865 5865 5865 5865 5865 5865
5870 5870 5869 5869 5868 5868 5867 5867 5866 5866 5866 5866 5865 5864 5864 5863 5862 5861 5861 5859 5858 5858 5859 5859 5860 5860 5861 5861 5861 5862 5863 5863 5863 5863 5864 5864 5864 5864 5864 5863 5863 5863 5863
5868 5868 5867 5867 5866 5866 5866 5865 5865 5864 5864 5864 5863 5863 5862 5861 5860 5860 5859 5859 5858 5858 5858 5858 5858 5859 5859 5860 5860 5860 5861 5861 5861 5862 5862 5862 5862 5862 5862 5862 5861 5861 5861
5866 5866 5865 5865 5864 5864 5863 5863 5863 5862 5862 5862 5861 5861 5860 5859 5859 5858 5858 5857 5857 5857 5857 5857 5857 5857 5858 5858 5858 5859 5859 5859 5859 5860 5860 5860 5860 5860 5860 5860 5860 5860 5859
5864 5864 5863 5863 5862 5861 5861 5860 5860 5860 5860 5859 5859 5858 5858 5857 5857 5856 5856 5855 5855 5855 5855 5855 5855 5856 5856 5856 5856 5857 5857 5857 5857 5857 5857 5858 5858 5858 5858 5858 5857 5857 5857
5862 5861 5861 5860 5859 5859 5858 5857 5857 5857 5857 5856 5856 5856 5855 5855 5854 5854 5854 5853 5853 5853 5853 5853 5854 5854 5854 5854 5854 5854 5855 5855 5855 5855 5855 5855 5855 5855 5855 5855 5855 5855 5854
5859 5858 5858 5857 5857 5856 5855 5854 5853 5853 5853 5853 5853 5853 5852 5852 5851 5851 5851 5851 5851 5851 5851 5851 5851 5852 5852 5852 5852 5852 5852 5852 5852 5852 5852 5852 5852 5852 5853 5853 5852 5852 5852
5856 5856 5855 5854 5854 5853 5852 5851 5850 5850 5850 5850 5850 5850 5850 5849 5849 5849 5849 5849 5849 5849 5849 5849 5849 5849 5849 5850 5850 5850 5850 5849 5849 5849 5849 5849 5850 5850 5850 5850 5850 5850 5850
5853 5853 5852 5851 5851 5850 5849 5848 5848 5848 5847 5847 5847 5847 5847 5847 5846 5846 5846 5846 5846 5846 5846 5846 5846 5846 5847 5847 5847 5847 5847 5847 5847 5846 5846 5846 5847 5847 5847 5847 5848 5847 5847
5851 5850 5849 5848 5848 5847 5846 5846 5845 5845 5845 5845 5844 5844 5844 5843 5844 5844 5844 5844 5844 5844 5844 5843 5843 5843 5844 5844 5844 5844 5844 5844 5844 5844 5843 5844 5844 5844 5844 5844 5844 5845 5844
5848 5847 5846 5845 5845 5844 5844 5843 5843 5843 5842 5842 5842 5841 5841 5841 5841 5841 5841 5841 5841 5841 5841 5841 5840 5840 5841 5841 5841 5841 5841 5841 5841 5841 5841 5841 5841 5841 5841 5841 5841 5841 5841
5845 5844 5843 5842 5842 5842 5841 5841 5840 5840 5840 5839 5839 5839 5838 5838 5838 5838 5838 5838 5838 5838 5837 5837 5837 5837 5837 5838 5838 5838 5838 5839 5838 5838 5838 5838 5838 5838 5838 5837 5837 5838 5837
5842 5841 5840 5839 5839 5839 5839 5838 5838 5837 5837 5837 5836 5836 5835 5835 5835 5834 5835 5835 5834 5834 5834 5834 5834 5834 5834 5834 5834 5835 5835 5835 5835 5835 5834 5834 5834 5834 5834 5834 5834 5834 5834
5838 5838 5838 5837 5836 5836 5836 5836 5835 5835 5834 5834 5833 5833 5832 5832 5831 5831 5831 5831 5831 5831 5831 5831 5830 5830 5831 5831 5831 5831 5831 5831 5831 5831 5831 5831 5831 5830 5830 5830 5830 5830 5829
5835 5835 5835 5834 5834 5833 5833 5832 5832 5832 5831 5830 5830 5829 5829 5829 5828 5828 5828 5827 5827 5827 5827 5827 5827 5827 5827 5827 5827 5827 5827 5827 5827 5827 5827 5827 5826 5826 5826 5826 5825 5825 5825
5831 5831 5831 5831 5831 5830 5830 5829 5829 5828 5828 5827 5827 5826 5826 5825 5825 5824 5824 5824 5824 5823 5823 5823 5823 5823 5823 5823 5823 5823 5823 5823 5823 5822 5822 5822 5822 5821 5821 5821 5821 5820 5820